CW6538 Cattolica IT current weather conditions

sailwx.info

Wind from 005 at 13 knots gusting 22

Air temperature 14.4° C
Dewpoint 10.7° C

Last reported at 2015-May-22 12:44 UTC.
Time now 2015-May-22 13:06 UTC

Location: N 43°58' E 012°44'.
View on Google Maps.

See reports from other nearby stations

  
Tides and Currents Weather Stations Pressure Air Temp Water Temp Dewpoint Dewpoint Depression Visibility Wind Speed Wind Dir Waves Ship Positions
date/time (UTC)wind fromknots sea level pressurealtimeterstation pressurevisibilityair tempwater tempwave heightnotes
2015-May-22 12:44 005 13 gusting 22 14.4
2015-May-22 12:39 355 16 gusting 22 14.4
2015-May-22 12:34 018 13 gusting 20 14.4
2015-May-22 12:29 348 12 gusting 21 14.4
2015-May-22 12:24 019 13 gusting 24 14.4
2015-May-22 12:14 355 13 gusting 24 13.9
2015-May-22 12:04 018 17 gusting 24 13.9
2015-May-22 11:59 340 16 gusting 24 13.9
2015-May-22 11:54 355 12 gusting 23 13.9
2015-May-22 11:49 051 15 gusting 22 13.9
2015-May-22 11:44 012 13 gusting 22 13.9
2015-May-22 11:39 012 12 gusting 22 13.9
2015-May-22 11:34 339 13 gusting 23 13.9
2015-May-22 11:29 355 13 gusting 23 14.4
2015-May-22 11:24 032 13 gusting 19 13.9
2015-May-22 11:19 044 11 gusting 19 13.9
2015-May-22 11:14 022 12 gusting 24 13.9
2015-May-22 11:09 005 13 gusting 22 13.9
2015-May-22 11:04 350 11 gusting 23 13.9
2015-May-22 10:59 336 9 gusting 22 13.9
2015-May-22 10:54 026 13 gusting 22 13.9
2015-May-22 10:49 026 9 gusting 23 13.9
2015-May-22 10:38 032 10 gusting 21 13.9
2015-May-22 10:34 011 8 gusting 25 13.9
2015-May-22 10:29 032 12 gusting 25 13.9
2015-May-22 10:24 039 14 gusting 31 13.9
2015-May-22 10:18 053 16 gusting 31 13.9
2015-May-22 10:14 051 16 gusting 29 13.9
2015-May-22 10:09 024 19 gusting 29 13.9
2015-May-22 10:04 085 14 gusting 26 13.9
2015-May-22 09:59 057 18 gusting 26 13.9
2015-May-22 09:54 034 12 gusting 26 13.9
2015-May-22 09:49 028 17 gusting 27 13.9
2015-May-22 09:44 355 14 gusting 29 13.9
2015-May-22 09:39 059 15 gusting 29 13.9
2015-May-22 09:34 331 10 gusting 20 13.9
2015-May-22 09:29 011 11 gusting 24 13.9
2015-May-22 09:24 052 10 gusting 27 13.9
2015-May-22 09:19 350 13 gusting 27 13.9
2015-May-22 09:14 096 13 gusting 24 13.9
2015-May-22 09:09 043 13 gusting 25 13.9
2015-May-22 09:04 046 13 gusting 25 13.9
2015-May-22 08:59 087 14 gusting 24 13.9
2015-May-22 08:54 051 13 gusting 22 14.4
2015-May-22 08:49 014 12 gusting 22 14.4
2015-May-22 08:44 011 8 gusting 19 14.4
2015-May-22 08:39 037 11 gusting 19 14.4
2015-May-22 08:34 034 8 gusting 18 14.4
2015-May-22 08:29 042 10 gusting 19 14.4
2015-May-22 08:24 045 12 gusting 19 14.4
2015-May-22 08:19 360 8 gusting 19 14.4
2015-May-22 08:14 021 9 gusting 19 13.9
2015-May-22 08:09 037 10 gusting 17 13.9
2015-May-22 08:04 342 10 gusting 18 13.9
2015-May-22 07:59 355 8 gusting 18 13.9
2015-May-22 07:54 053 9 gusting 19 13.9
2015-May-22 07:49 005 11 gusting 19 13.3
2015-May-22 07:44 005 10 gusting 17 13.3
2015-May-22 07:39 010 9 gusting 18 13.3
2015-May-22 07:34 005 7 gusting 18 13.3
2015-May-22 07:29 355 6 gusting 17 13.3
2015-May-22 07:24 033 10 gusting 17 12.8
2015-May-22 07:19 038 9 gusting 17 12.8
2015-May-22 07:09 022 7 gusting 16 12.8
2015-May-22 07:04 286 3 gusting 11 12.8
2015-May-22 06:59 312 6 gusting 12 12.2
2015-May-22 06:53 288 6 gusting 12 12.2
2015-May-22 06:49 275 5 gusting 17 12.2
2015-May-22 06:44 295 9 gusting 17 11.7
2015-May-22 06:39 309 6 gusting 12 11.7
2015-May-22 06:34 312 1 gusting 17 11.7
2015-May-22 06:29 282 7 gusting 17 11.7
2015-May-22 06:24 281 6 gusting 13 11.7
2015-May-22 06:19 276 6 gusting 12 11.7
2015-May-22 06:14 248 6 gusting 13 11.7
2015-May-22 06:09 290 6 gusting 13 11.7
2015-May-22 06:04 263 6 gusting 13 11.7
2015-May-22 05:59 319 8 gusting 13 11.7
2015-May-22 05:54 288 6 gusting 16 11.7
2015-May-22 05:49 276 7 gusting 16 11.7
2015-May-22 05:44 293 7 gusting 17 11.7
2015-May-22 05:39 294 10 gusting 17 11.7
2015-May-22 05:34 298 7 gusting 17 11.7
2015-May-22 05:29 275 10 gusting 17 11.7
2015-May-22 05:24 316 7 gusting 15 11.7
2015-May-22 05:19 319 7 gusting 13 11.7
2015-May-22 05:14 269 6 gusting 17 11.7
2015-May-22 05:09 277 9 gusting 17 11.7
2015-May-22 05:04 283 7 gusting 19 11.7
2015-May-22 04:59 313 8 gusting 19 11.7
2015-May-22 04:54 270 9 gusting 20 11.7
2015-May-22 04:49 286 10 gusting 20 11.7
2015-May-22 04:39 308 9 gusting 18 11.7
2015-May-22 04:34 308 7 gusting 19 11.7
2015-May-22 04:29 296 11 gusting 19 11.7
2015-May-22 04:24 278 7 gusting 15 11.7
2015-May-22 04:19 315 6 gusting 18 12.2
2015-May-22 04:14 279 7 gusting 20 12.2
2015-May-22 04:08 282 7 gusting 20 12.2
2015-May-22 04:04 305 12 gusting 18 12.8
2015-May-22 03:59 331 10 gusting 23 13.3
2015-May-22 03:54 303 13 gusting 23 13.3
2015-May-22 03:49 306 12 gusting 23 13.3
2015-May-22 03:44 330 13 gusting 23 13.3
2015-May-22 03:39 026 14 gusting 25 13.3
2015-May-22 03:34 310 15 gusting 25 13.3
2015-May-22 03:29 309 12 gusting 25 13.9
2015-May-22 03:24 304 16 gusting 25 13.9
2015-May-22 03:19 355 13 gusting 21 13.9
2015-May-22 03:14 342 13 gusting 21 14.4
2015-May-22 03:09 346 7 gusting 16 14.4
2015-May-22 02:54 355 7 gusting 17 14.4
2015-May-22 02:49 348 9 gusting 17 13.9
2015-May-22 02:44 029 6 gusting 15 13.9
2015-May-22 02:39 013 7 gusting 25 13.9
2015-May-22 02:34 350 13 gusting 25 14.4
2015-May-22 02:29 005 13 gusting 26 14.4
2015-May-22 02:24 019 15 gusting 26 13.9
2015-May-22 02:19 036 17 gusting 26 13.9
2015-May-22 02:09 005 15 gusting 26 14.4
2015-May-22 02:04 015 10 gusting 26 14.4
2015-May-22 01:58 036 14 gusting 29 14.4
2015-May-22 01:54 036 16 gusting 29 14.4
2015-May-22 01:49 052 12 gusting 28 14.4
2015-May-22 01:44 067 13 gusting 26 14.4
2015-May-22 01:39 063 12 gusting 20 13.9
2015-May-22 01:33 017 14 gusting 20 13.9
2015-May-22 01:29 005 11 gusting 18 13.3
2015-May-22 01:24 185 0 gusting 5 13.3
2015-May-22 01:19 214 3 gusting 5 12.8
2015-May-22 01:14 221 12.8
2015-May-22 01:09 221 2 gusting 7 12.8
2015-May-22 01:04 275 4 gusting 8 12.8
2015-May-22 00:59 300 4 gusting 8 12.8
2015-May-22 00:54 250 2 gusting 5 12.8
2015-May-22 00:49 348 1 gusting 8 12.8
2015-May-22 00:44 275 5 gusting 10 12.8
2015-May-22 00:39 302 6 gusting 10 13.3
2015-May-22 00:34 261 5 gusting 11 13.3
2015-May-22 00:29 272 7 gusting 11 13.3
2015-May-22 00:24 296 5 gusting 12 13.3
2015-May-22 00:19 265 6 gusting 12 13.3
2015-May-22 00:14 279 6 gusting 13 13.3
2015-May-22 00:09 269 6 gusting 13 13.3
2015-May-22 00:04 293 6 gusting 13 13.3
2015-May-21 23:59 290 7 gusting 13 13.3
2015-May-21 23:54 287 6 gusting 12 13.3
2015-May-21 23:49 246 6 gusting 13 13.3
2015-May-21 23:44 282 6 gusting 13 13.3
2015-May-21 23:39 248 6 gusting 13 13.3
2015-May-21 23:34 249 5 gusting 11 13.3
2015-May-21 23:29 261 5 gusting 13 13.9
2015-May-21 23:24 247 6 gusting 13 13.9
2015-May-21 23:19 238 7 gusting 13 13.9
2015-May-21 23:14 338 6 gusting 13 13.9
2015-May-21 23:09 281 9 gusting 13 13.9
2015-May-21 23:04 274 6 gusting 13 13.9
2015-May-21 22:59 273 9 gusting 13 13.9
2015-May-21 22:54 284 8 gusting 13 13.9
2015-May-21 22:49 265 6 gusting 13 13.9
2015-May-21 22:44 285 8 gusting 16 13.9
2015-May-21 22:39 278 8 gusting 16 13.9
2015-May-21 22:34 255 6 gusting 15 13.9
2015-May-21 22:29 279 6 gusting 17 13.9
2015-May-21 22:24 294 7 gusting 18 13.9
2015-May-21 22:19 281 10 gusting 18 13.9
2015-May-21 22:14 301 7 gusting 13 13.9
2015-May-21 22:09 296 6 gusting 13 13.9
2015-May-21 22:04 265 7 gusting 13 13.9
2015-May-21 21:59 246 6 gusting 18 13.9
2015-May-21 21:54 276 9 gusting 18 13.9
2015-May-21 21:49 268 6 gusting 16 13.9
2015-May-21 21:44 288 6 gusting 15 13.9
2015-May-21 21:39 311 6 gusting 13 13.9
2015-May-21 21:34 298 6 gusting 13 13.9
2015-May-21 21:29 279 6 gusting 13 13.9
2015-May-21 21:24 287 8 gusting 13 13.9
2015-May-21 21:19 274 6 gusting 13 13.9
2015-May-21 21:14 257 8 gusting 13 13.9
2015-May-21 21:09 273 8 gusting 13 13.9
2015-May-21 21:04 309 3 gusting 11 13.9
2015-May-21 20:59 252 5 gusting 12 13.9
2015-May-21 20:54 267 6 gusting 13 13.9
2015-May-21 20:49 273 6 gusting 12 13.9
2015-May-21 20:44 282 7 gusting 13 14.4
2015-May-21 20:39 281 9 gusting 13 14.4
2015-May-21 20:34 250 6 gusting 12 14.4
2015-May-21 20:29 254 6 gusting 12 14.4
2015-May-21 20:24 271 6 gusting 13 14.4
2015-May-21 20:19 262 7 gusting 13 14.4
2015-May-21 20:14 268 6 gusting 12 14.4
2015-May-21 20:09 281 6 gusting 13 14.4
2015-May-21 20:04 275 7 gusting 15 14.4
2015-May-21 19:59 246 7 gusting 15 14.4
2015-May-21 19:54 275 7 gusting 12 14.4
2015-May-21 19:49 298 6 gusting 18 14.4
2015-May-21 19:44 308 6 gusting 18 14.4
2015-May-21 19:39 240 6 gusting 13 14.4
2015-May-21 19:34 275 6 gusting 15 14.4
2015-May-21 19:29 277 8 gusting 13 14.4
2015-May-21 19:24 266 6 gusting 17 14.4
2015-May-21 19:19 293 8 gusting 18 14.4
2015-May-21 19:14 267 9 gusting 18 15.0
2015-May-21 19:09 273 9 gusting 18 15.6
2015-May-21 19:04 315 6 gusting 15 15.6
2015-May-21 18:59 337 7 gusting 17 15.6
2015-May-21 18:54 318 5 gusting 17 15.6
2015-May-21 18:49 264 7 gusting 17 16.1
2015-May-21 18:44 244 10 gusting 17 16.7
2015-May-21 18:39 263 8 gusting 12 17.8
2015-May-21 18:34 296 6 gusting 12 18.9
2015-May-21 18:29 165 1 gusting 5 18.9
2015-May-21 18:24 167 2 gusting 4 18.9
2015-May-21 18:19 149 2 gusting 5 18.9
2015-May-21 18:14 162 3 gusting 6 18.9
2015-May-21 18:09 149 3 gusting 6 18.9
2015-May-21 18:04 114 2 gusting 4 18.9
2015-May-21 17:59 142 0 gusting 4 18.9
2015-May-21 17:54 074 18.9
2015-May-21 17:49 074 2 gusting 9 18.9
2015-May-21 17:44 121 3 gusting 9 18.9
2015-May-21 17:34 101 4 gusting 7 18.9
2015-May-21 17:29 106 4 gusting 6 18.9
2015-May-21 17:24 107 1 gusting 4 18.9
2015-May-21 17:19 115 0 gusting 11 18.9
2015-May-21 17:14 130 5 gusting 11 19.4
2015-May-21 17:09 130 6 gusting 10 19.4
2015-May-21 17:04 078 5 gusting 10 19.4
2015-May-21 16:59 078 2 gusting 9 19.4
2015-May-21 16:54 093 6 gusting 9 20.0
2015-May-21 16:49 053 6 gusting 9 20.0
2015-May-21 16:44 107 6 gusting 13 20.0
2015-May-21 16:39 074 6 gusting 13 20.0
2015-May-21 16:34 152 6 gusting 13 20.0
2015-May-21 16:29 109 8 gusting 15 20.6
2015-May-21 16:24 092 11 gusting 15 20.6
2015-May-21 16:19 111 8 gusting 15 20.6
2015-May-21 16:14 115 6 gusting 15 20.6
2015-May-21 16:09 125 8 gusting 13 20.6
2015-May-21 16:04 139 8 gusting 13 20.6
2015-May-21 15:59 084 7 gusting 15 20.0
2015-May-21 15:54 116 8 gusting 16 20.6
2015-May-21 15:49 132 10 gusting 17 20.6
2015-May-21 15:44 102 9 gusting 16 20.6
2015-May-21 15:39 113 9 gusting 16 20.6
2015-May-21 15:34 117 8 gusting 13 20.6
2015-May-21 15:29 106 6 gusting 13 21.1
2015-May-21 15:24 112 4 gusting 13 21.1
2015-May-21 15:19 117 4 gusting 11 20.6
2015-May-21 15:14 096 5 gusting 12 21.1
2015-May-21 15:09 103 6 gusting 13 21.1
2015-May-21 15:04 106 6 gusting 12 21.1
2015-May-21 14:59 049 6 gusting 12 21.7
2015-May-21 14:54 157 6 gusting 12 21.7
2015-May-21 14:49 119 5 gusting 13 21.1
2015-May-21 14:44 107 8 gusting 13 20.6
2015-May-21 14:39 124 5 gusting 11 20.6
2015-May-21 14:34 086 6 gusting 13 20.6
2015-May-21 14:29 075 6 gusting 17 20.6
2015-May-21 14:24 066 9 gusting 15 21.1
2015-May-21 14:19 101 6 gusting 15 21.1
2015-May-21 14:14 076 7 gusting 15 21.7
2015-May-21 14:09 063 6 gusting 16 21.7
2015-May-21 14:04 065 8 gusting 17 21.7
2015-May-21 13:59 057 10 gusting 16 21.7
2015-May-21 13:54 053 10 gusting 17 21.7
2015-May-21 13:49 074 8 gusting 17 21.1
2015-May-21 13:44 098 6 gusting 16 21.1
2015-May-21 13:39 069 9 gusting 16 21.7
2015-May-21 13:34 058 6 gusting 17 21.7
2015-May-21 13:29 040 11 gusting 17 21.7
2015-May-21 13:24 049 11 gusting 16 21.7
2015-May-21 13:19 076 8 gusting 16 21.7
2015-May-21 13:14 080 11 gusting 17 21.1
2015-May-21 13:09 062 9 gusting 16 21.1
2015-May-21 13:04 070 7 gusting 16 21.1
2015-May-21 12:59 044 8 gusting 17 21.1
2015-May-21 12:54 060 11 gusting 17 20.6
2015-May-21 12:49 057 10 gusting 16 20.6
2015-May-21 12:44 053 8 gusting 16 20.6
2015-May-21 12:39 076 7 gusting 16 20.6
2015-May-21 12:34 030 8 gusting 15 20.6
2015-May-21 12:29 018 9 gusting 15 21.1
2015-May-21 12:24 068 8 gusting 12 21.1
2015-May-21 12:19 028 7 gusting 12 21.1
2015-May-21 12:14 055 7 gusting 12 21.1
2015-May-21 11:58 350 6 gusting 13 22.2
2015-May-21 11:54 016 6 gusting 12 22.8
2015-May-21 11:49 350 7 gusting 12 23.3
2015-May-21 11:44 029 6 gusting 13 22.8
2015-May-21 11:39 048 8 gusting 13 23.3
2015-May-21 11:33 019 5 gusting 11 23.3
2015-May-21 11:28 044 8 gusting 11 22.8
2015-May-21 11:24 024 6 gusting 9 22.8
2015-May-21 11:19 350 3 gusting 9 22.8
2015-May-21 11:09 061 7 gusting 11 22.2
2015-May-21 10:59 023 8 gusting 12 21.7
2015-May-21 10:54 005 7 gusting 13 22.2
2015-May-21 10:49 015 8 gusting 13 22.2
2015-May-21 10:44 057 8 gusting 13 22.8
2015-May-21 10:39 028 7 gusting 11 22.8
2015-May-21 10:33 349 4 gusting 8 22.8
2015-May-21 10:29 312 5 gusting 8 22.2
2015-May-21 10:24 360 5 gusting 9 21.7
2015-May-21 10:19 344 5 gusting 9 22.2
2015-May-21 10:14 347 5 gusting 8 22.2
2015-May-21 10:09 326 3 gusting 8 21.7
2015-May-21 10:04 348 5 gusting 8 21.7
2015-May-21 09:59 306 1 gusting 8 21.7
2015-May-21 09:54 360 4 gusting 9 21.7
2015-May-21 09:49 355 2 gusting 10 21.7
2015-May-21 09:44 255 6 gusting 11 21.1
2015-May-21 09:39 227 6 gusting 11 21.1
2015-May-21 09:34 227 6 gusting 11 21.1
2015-May-21 09:29 253 6 gusting 11 21.1
2015-May-21 09:24 297 5 gusting 12 20.6
2015-May-21 09:14 271 6 gusting 10 21.1
2015-May-21 09:09 230 3 gusting 13 21.7
2015-May-21 09:04 296 5 gusting 8 21.1
2015-May-21 08:59 294 3 gusting 13 21.1
2015-May-21 08:54 238 8 gusting 13 21.1
2015-May-21 08:49 195 6 gusting 10 20.6
2015-May-21 08:44 256 5 gusting 9 21.1
2015-May-21 08:39 176 2 gusting 10 21.1
2015-May-21 08:34 220 3 gusting 10 20.6
2015-May-21 08:29 205 5 gusting 9 20.6
2015-May-21 08:24 207 3 gusting 12 20.6
2015-May-21 08:19 179 6 gusting 13 20.0
2015-May-21 08:14 217 8 gusting 13 20.0
2015-May-21 08:09 232 6 gusting 10 20.0
2015-May-21 07:59 227 6 gusting 12 19.4
2015-May-21 07:53 250 7 gusting 13 19.4
2015-May-21 07:49 247 7 gusting 13 19.4
2015-May-21 07:44 248 7 gusting 11 19.4
2015-May-21 07:39 275 6 gusting 12 19.4
2015-May-21 07:33 221 7 gusting 12 18.9
2015-May-21 07:29 221 6 gusting 11 18.9
2015-May-21 07:24 236 6 gusting 15 18.9
2015-May-21 07:19 232 6 gusting 16 18.9
2015-May-21 07:14 246 6 gusting 11 18.9
2015-May-21 07:08 254 5 gusting 11 18.9
2015-May-21 07:04 246 6 gusting 11 18.3
2015-May-21 06:59 214 5 gusting 11 18.3
2015-May-21 06:54 234 4 gusting 12 18.3
2015-May-21 06:49 216 6 gusting 12 18.3
2015-May-21 06:44 172 6 gusting 11 17.8
2015-May-21 06:39 219 5 gusting 11 17.8
2015-May-21 06:34 198 6 gusting 11 17.8
2015-May-21 06:29 221 7 gusting 10 17.8
2015-May-21 06:24 246 6 gusting 15 17.8
2015-May-21 06:19 242 5 gusting 15 17.8
2015-May-21 06:14 215 5 gusting 13 17.8
2015-May-21 06:09 219 6 gusting 13 17.2
2015-May-21 06:04 250 6 gusting 13 17.2
2015-May-21 05:59 216 6 gusting 10 17.2
2015-May-21 05:54 227 6 gusting 10 17.2
2015-May-21 05:49 194 6 gusting 13 17.2
2015-May-21 05:44 220 7 gusting 13 17.2
2015-May-21 05:39 225 6 gusting 13 17.2
2015-May-21 05:34 244 6 gusting 13 17.2
2015-May-21 05:29 233 8 gusting 13 16.7
2015-May-21 05:24 239 6 gusting 13 16.7
2015-May-21 05:19 181 4 gusting 8 16.7
2015-May-21 05:14 171 4 gusting 6 16.7
2015-May-21 05:08 225 1 gusting 5 16.1
2015-May-21 05:03 167 16.1
2015-May-21 04:59 167 16.1
2015-May-21 04:54 154 0 gusting 3 16.1
2015-May-21 04:49 154 16.1
2015-May-21 04:44 234 16.1
2015-May-21 04:39 234 16.1
2015-May-21 04:33 234 16.1
2015-May-21 04:29 234 16.1
2015-May-21 04:23 234 16.1
2015-May-21 04:18 221 2 gusting 5 16.1
2015-May-21 04:14 236 16.1
2015-May-21 04:09 272 16.1
2015-May-21 04:04 272 1 gusting 5 16.1
2015-May-21 03:59 238 1 gusting 7 16.1
2015-May-21 03:54 245 3 gusting 9 16.1
2015-May-21 03:48 218 5 gusting 9 16.1
2015-May-21 03:44 237 4 gusting 11 16.1
2015-May-21 03:39 229 6 gusting 13 16.1
2015-May-21 03:34 232 10 gusting 13 16.1
2015-May-21 03:28 237 8 gusting 11 16.1
2015-May-21 03:24 236 7 gusting 13 16.1
2015-May-21 03:19 217 9 gusting 13 16.7
2015-May-21 03:14 232 8 gusting 12 16.7
2015-May-21 03:09 209 7 gusting 9 16.7
2015-May-21 03:04 235 6 gusting 9 16.7
2015-May-21 02:59 219 5 gusting 7 16.7
2015-May-21 02:54 229 5 gusting 7 16.7
2015-May-21 02:49 217 5 gusting 7 16.7
2015-May-21 02:44 200 5 gusting 7 16.7
2015-May-21 02:39 229 4 gusting 9 16.7
2015-May-21 02:34 215 6 gusting 13 17.2
2015-May-21 02:29 231 6 gusting 10 17.2
2015-May-21 02:24 207 6 gusting 11 17.2
2015-May-21 02:18 186 6 gusting 11 17.2
2015-May-21 02:14 230 6 gusting 10 17.2
2015-May-21 02:09 203 6 gusting 9 17.2
2015-May-21 01:59 186 6 gusting 8 17.2
2015-May-21 01:54 232 4 gusting 8 17.2
2015-May-21 01:49 232 1 gusting 5 17.2
2015-May-21 01:43 235 1 gusting 6 17.2
2015-May-21 01:39 269 3 gusting 6 17.2
2015-May-21 01:34 225 2 gusting 5 17.2
2015-May-21 01:29 225 4 gusting 11 17.8
2015-May-21 01:24 217 5 gusting 11 17.8
2015-May-21 01:19 229 6 gusting 10 17.8
2015-May-21 01:14 220 6 gusting 10 17.8
2015-May-21 01:09 227 4 gusting 12 17.8
2015-May-21 01:04 249 3 gusting 11 17.8
2015-May-21 00:59 221 4 gusting 13 17.8
2015-May-21 00:54 242 7 gusting 13 17.8
2015-May-21 00:48 232 6 gusting 10 17.8
2015-May-21 00:44 207 6 gusting 11 17.8
2015-May-21 00:39 207 5 gusting 11 17.8
2015-May-21 00:34 217 6 gusting 13 17.8
2015-May-21 00:29 250 8 gusting 13 17.8
2015-May-21 00:24 224 6 gusting 10 17.8
2015-May-21 00:19 264 6 gusting 10 17.8
2015-May-21 00:14 259 6 gusting 9 17.8
2015-May-21 00:09 243 6 gusting 8 17.8
2015-May-21 00:04 254 5 gusting 8 18.3
2015-May-20 23:59 225 5 gusting 8 18.3
2015-May-20 23:54 259 3 gusting 7 18.3
2015-May-20 23:48 245 5 gusting 8 18.3
2015-May-20 23:44 254 4 gusting 9 18.3
2015-May-20 23:38 246 5 gusting 9 18.3
2015-May-20 23:34 250 2 gusting 6 18.9
2015-May-20 23:29 225 1 gusting 7 18.9
2015-May-20 23:24 249 2 gusting 8 18.9
2015-May-20 23:18 236 5 gusting 11 18.9
2015-May-20 23:14 248 6 gusting 17 18.9
2015-May-20 23:09 227 9 gusting 17 18.9
2015-May-20 23:03 217 7 gusting 19 18.9
2015-May-20 22:59 194 9 gusting 19 18.9
2015-May-20 22:54 179 10 gusting 19 18.9
2015-May-20 22:49 206 11 gusting 21 18.9
2015-May-20 22:44 196 11 gusting 21 19.4
2015-May-20 22:39 224 10 gusting 18 19.4
2015-May-20 22:34 220 10 gusting 23 19.4
2015-May-20 22:29 196 8 gusting 19 19.4
2015-May-20 22:24 221 11 gusting 20 19.4
2015-May-20 22:19 183 8 gusting 20 19.4
2015-May-20 22:14 198 9 gusting 18 19.4
2015-May-20 22:09 194 6 gusting 19 19.4
2015-May-20 22:04 225 8 gusting 19 19.4
2015-May-20 21:58 211 12 gusting 19 18.9
2015-May-20 21:54 201 11 gusting 18 18.9
2015-May-20 21:49 188 8 gusting 15 18.9
2015-May-20 21:44 207 7 gusting 13 18.3
2015-May-20 21:39 227 6 gusting 12 17.8
2015-May-20 21:34 181 6 gusting 12 17.8
2015-May-20 21:29 182 5 gusting 9 17.8
2015-May-20 21:24 184 4 gusting 7 17.8
2015-May-20 21:18 190 17.8
2015-May-20 21:14 190 17.8
2015-May-20 21:08 190 2 gusting 5 17.8
2015-May-20 21:04 191 1 gusting 5 17.8
2015-May-20 20:59 188 0 gusting 4 17.8
2015-May-20 20:54 185 0 gusting 6 17.8
2015-May-20 20:49 140 4 gusting 6 17.8
2015-May-20 20:43 167 5 gusting 6 17.8
2015-May-20 20:39 160 4 gusting 6 17.8
2015-May-20 20:34 175 3 gusting 5 18.3
2015-May-20 20:29 178 3 gusting 6 18.3
2015-May-20 20:24 177 2 gusting 4 18.3
2015-May-20 20:19 178 1 gusting 5 18.3
2015-May-20 20:14 186 2 gusting 5 18.3
2015-May-20 20:09 171 0 gusting 4 18.3
2015-May-20 20:04 163 1 gusting 4 18.3
2015-May-20 19:59 136 2 gusting 4 18.3
2015-May-20 19:54 180 2 gusting 3 18.9
2015-May-20 19:49 193 18.9
2015-May-20 19:44 193 18.9
2015-May-20 19:39 193 1 gusting 3 18.9
2015-May-20 19:34 193 1 gusting 3 18.9
2015-May-20 19:29 206 1 gusting 4 18.9
2015-May-20 19:24 150 2 gusting 4 18.9
2015-May-20 19:19 287 0 gusting 3 18.9
2015-May-20 19:14 287 18.9
2015-May-20 19:09 287 18.9
2015-May-20 19:04 287 0 gusting 5 18.9
2015-May-20 18:59 298 4 gusting 5 18.9
2015-May-20 18:54 350 2 gusting 6 19.4
2015-May-20 18:49 324 4 gusting 6 19.4
2015-May-20 18:44 005 4 gusting 6 19.4
2015-May-20 18:39 013 4 gusting 6 19.4
2015-May-20 18:34 360 2 gusting 8 19.4
2015-May-20 18:29 284 3 gusting 8 19.4
2015-May-20 18:24 319 5 gusting 8 19.4
2015-May-20 18:19 355 6 gusting 9 19.4
2015-May-20 18:14 338 5 gusting 9 19.4
2015-May-20 18:09 302 4 gusting 7 19.4
2015-May-20 18:04 331 4 gusting 7 19.4
2015-May-20 17:59 290 4 gusting 6 19.4
2015-May-20 17:53 355 4 gusting 7 19.4
2015-May-20 17:49 315 6 gusting 7 19.4
2015-May-20 17:44 340 4 gusting 6 19.4
2015-May-20 17:39 308 2 gusting 9 19.4
2015-May-20 17:34 337 6 gusting 10 19.4
2015-May-20 17:29 330 6 gusting 10 19.4
2015-May-20 17:24 005 6 gusting 9 19.4
2015-May-20 17:19 334 5 gusting 11 19.4
2015-May-20 17:14 329 6 gusting 9 20.0
2015-May-20 17:09 346 5 gusting 11 20.0
2015-May-20 17:04 349 6 gusting 11 20.0
2015-May-20 16:59 319 7 gusting 11 20.0
2015-May-20 16:54 332 7 gusting 12 20.0
2015-May-20 16:49 355 6 gusting 13 20.0
2015-May-20 16:44 026 6 gusting 13 20.0
2015-May-20 16:39 005 7 gusting 15 20.6
2015-May-20 16:34 312 8 gusting 17 20.6
2015-May-20 16:29 350 10 gusting 17 20.6
2015-May-20 16:24 360 7 gusting 13 21.1
2015-May-20 16:19 351 8 gusting 16 21.1
2015-May-20 16:14 331 8 gusting 17 21.7
2015-May-20 16:09 021 11 gusting 21 22.2
2015-May-20 16:04 339 9 gusting 21 23.3
2015-May-20 15:59 315 4 gusting 9 23.9
2015-May-20 15:54 027 5 gusting 7 23.9
2015-May-20 15:49 018 4 gusting 9 23.9
2015-May-20 15:44 053 5 gusting 10 24.4
2015-May-20 15:39 046 6 gusting 10 24.4
2015-May-20 15:34 027 6 gusting 13 24.4
2015-May-20 15:29 340 4 gusting 13 24.4
2015-May-20 15:24 336 8 gusting 10 25.6
2015-May-20 15:19 348 3 gusting 5 26.1
2015-May-20 15:14 323 2 gusting 7 25.6
2015-May-20 15:09 034 2 gusting 10 25.0
2015-May-20 15:04 240 7 gusting 13 25.6
2015-May-20 14:59 235 6 gusting 13 25.0
2015-May-20 14:54 355 7 gusting 11 25.0
2015-May-20 14:49 119 2 gusting 6 25.0
2015-May-20 14:43 030 2 gusting 8 25.6
2015-May-20 14:39 040 6 gusting 10 26.1
2015-May-20 14:34 005 6 gusting 9 26.1
2015-May-20 14:29 045 2 gusting 7 26.1
2015-May-20 14:24 030 3 gusting 7 26.1
2015-May-20 14:19 022 6 gusting 7 25.6
2015-May-20 14:14 011 4 gusting 9 25.6
2015-May-20 14:09 090 2 gusting 11 25.6
2015-May-20 14:04 042 4 gusting 11 25.6
2015-May-20 13:59 248 2 gusting 6 25.6
2015-May-20 13:54 280 3 gusting 6 25.6
2015-May-20 13:49 222 5 gusting 6 25.0
2015-May-20 13:44 216 2 gusting 8 25.0
2015-May-20 13:39 229 5 gusting 7 25.0
2015-May-20 13:34 209 4 gusting 8 25.0
2015-May-20 13:29 154 2 gusting 10 24.4
2015-May-20 13:24 178 6 gusting 12 24.4
2015-May-20 13:19 238 7 gusting 12 25.0
2015-May-20 13:09 169 6 gusting 12 25.0
2015-May-20 13:04 190 3 gusting 12 25.0